Wind_Speed
44 50 56 58 62 65 59 56 60 58 58 56 59 63 66 67 69 73 74 75 75 74 73 76 75 74 75 76 76 77 76 74 72 74 78 82 79 75 77 75 71 70 70
55 60 66 64 69 66 61 61 60 63 66 66 66 67 70 73 74 75 75 75 77 79 80 81 80 80 82 83 83 83 82 84 80 79 74 73 71 74 73 71 69 71 70
71 65 72 74 77 79 76 73 68 70 72 74 75 76 79 79 80 79 80 81 83 84 84 86 88 89 89 89 88 85 80 76 71 64 63 69 70 70 68 70 72 67 58
66 79 80 79 79 80 72 75 79 79 77 79 84 84 85 85 87 86 87 88 87 89 90 91 92 90 85 77 66 60 58 57 57 62 65 62 63 69 70 67 60 62 63
53 57 68 81 81 80 78 76 75 75 80 84 87 90 89 89 91 94 93 90 85 83 77 70 65 61 58 57 56 56 55 57 56 55 58 62 66 66 60 57 60 65 65
55 56 58 63 65 64 65 67 70 70 72 72 73 74 72 72 71 69 70 67 64 63 56 53 52 49 47 47 47 48 49 51 56 60 63 64 59 56 56 61 61 62 65
55 55 55 55 56 59 60 60 62 61 59 63 65 64 64 62 64 66 63 60 58 53 50 50 47 44 42 44 47 51 56 56 57 59 50 50 52 57 59 62 64 65 62
52 53 52 51 52 57 59 56 56 59 62 64 64 63 63 62 60 59 56 55 54 53 53 52 51 47 45 50 54 56 56 57 49 46 48 50 53 57 58 61 68 61 62
52 49 49 49 50 57 56 56 61 63 65 63 63 63 63 61 59 58 56 53 53 53 51 51 52 52 52 52 52 53 51 45 47 49 53 54 57 60 63 63 68 64 65
53 52 53 52 55 56 57 64 67 67 65 63 62 64 63 60 59 59 57 55 53 52 52 48 47 47 47 47 49 43 43 46 48 55 58 57 57 62 63 67 67 65 60
57 57 59 63 66 65 66 68 68 63 59 55 55 57 59 58 56 56 56 56 54 52 47 44 45 43 44 44 40 40 44 46 50 55 58 61 63 64 64 67 65 56 50
61 63 66 69 69 66 67 67 67 63 59 59 55 55 55 53 54 53 53 51 50 45 38 34 36 41 39 34 37 42 44 47 51 56 59 61 62 61 66 60 51 43 40
61 60 60 62 63 66 68 69 66 65 62 58 55 55 53 50 49 47 46 44 38 31 25 24 25 25 26 33 38 39 43 50 55 58 58 57 52 59 54 46 40 34 30
57 60 63 64 68 70 68 66 64 62 58 55 53 52 50 45 43 40 38 32 25 20 16 16 20 24 30 36 37 41 45 49 49 51 51 46 52 52 44 40 34 27 24
58 58 58 62 59 55 56 56 51 46 44 45 45 45 43 38 35 33 27 21 17 15 18 21 23 27 32 33 35 39 37 41 44 45 41 46 47 43 38 34 28 20 18
51 52 51 47 47 47 47 43 38 36 35 35 37 38 33 31 28 24 20 19 20 21 23 26 28 26 29 30 33 30 33 39 43 43 41 46 45 37 32 28 21 14 12
50 44 42 41 39 35 34 32 30 27 25 24 27 31 27 24 21 18 19 21 23 21 21 25 24 25 27 30 27 29 33 38 43 41 42 45 41 32 28 22 12 5 12
42 39 34 30 27 27 27 26 22 17 19 20 22 23 21 20 20 19 22 25 25 25 24 24 24 25 26 24 26 28 30 36 40 41 42 42 38 28 21 12 3 9 18
34 29 25 24 24 24 21 19 17 16 17 19 18 17 16 18 20 23 26 28 28 29 29 27 25 24 24 24 26 27 30 35 39 43 42 39 36 24 11 5 6 15 27
25 23 22 23 23 22 21 19 17 16 17 15 15 16 18 22 23 25 27 29 30 31 31 31 29 26 24 26 27 26 29 33 36 40 42 37 32 17 8 11 17 30 44
21 21 21 20 20 21 20 18 16 16 15 16 16 18 20 23 27 29 32 33 34 35 36 35 32 29 26 28 28 27 28 30 34 37 41 35 25 9 13 28 36 33 41
19 20 19 19 19 20 20 20 20 20 20 21 21 22 23 25 27 30 33 35 38 40 40 37 36 32 31 31 30 28 28 28 31 34 38 32 20 4 27 41 39 43 46
19 20 19 20 21 21 22 22 23 25 26 26 27 28 30 31 31 32 34 36 38 40 41 40 38 35 34 33 32 28 26 27 29 31 33 26 13 12 37 43 42 46 50
19 20 20 21 21 22 23 24 26 28 29 31 32 33 35 36 36 37 38 38 39 39 39 38 36 35 33 33 31 29 26 25 27 29 25 18 4 23 44 42 47 51 54
18 19 21 22 24 25 26 26 26 28 29 30 31 33 35 36 38 39 39 39 39 39 38 36 35 34 32 30 30 30 27 25 27 24 22 10 7 37 49 47 49 53 54
14 14 15 17 18 20 23 25 28 30 33 35 37 39 41 43 45 46 47 47 46 45 44 43 42 40 38 36 34 33 29 25 24 21 21 11 16 47 52 52 55 55 54
Wind_Direction
217 226 231 238 245 251 253 259 256 260 261 258 257 257 260 263 263 264 267 269 270 272 277 280 281 281 282 282 282 282 283 281 280 279 282 285 286 287 289 291 292 294 295
228 224 232 239 245 249 253 257 258 259 262 262 260 261 262 263 264 266 267 270 271 274 278 280 281 282 282 282 282 281 282 282 281 279 281 281 281 285 286 286 289 291 291
235 236 234 234 239 247 253 256 258 261 263 263 263 265 266 267 267 268 271 273 275 278 280 280 282 281 282 283 284 282 283 282 282 281 279 280 284 284 286 289 291 290 285
242 238 241 245 252 256 259 263 261 261 263 265 265 266 267 269 270 270 272 274 277 278 279 280 281 282 283 283 282 281 281 282 283 284 283 282 283 287 290 290 290 288 287
255 253 252 253 256 262 265 265 266 266 265 266 266 267 269 271 273 275 276 276 277 279 280 280 280 282 284 282 282 284 285 286 285 284 286 288 289 290 288 289 291 291 290
262 261 257 254 256 260 262 263 263 263 264 267 270 272 272 273 275 277 279 280 279 280 281 281 282 285 286 285 283 285 285 287 289 289 290 290 289 288 292 293 291 294 289
261 261 258 258 258 258 258 260 263 265 265 266 270 273 275 280 284 285 284 284 281 277 278 281 283 283 283 283 284 286 287 288 287 287 285 285 289 293 292 293 297 295 285
260 259 263 264 265 264 264 262 264 267 270 271 275 279 282 285 283 284 285 284 281 279 277 278 280 280 279 282 288 289 291 292 289 289 289 290 291 292 295 296 298 291 287
262 270 274 277 273 263 257 269 274 273 273 275 278 278 279 280 282 285 287 284 281 280 280 278 278 280 282 284 287 291 291 286 291 293 293 293 293 299 299 298 299 291 287
271 274 277 278 275 266 265 277 280 278 275 275 277 277 278 280 282 283 284 284 283 283 281 278 276 277 281 285 291 285 281 288 292 295 295 295 300 303 304 302 297 292 289
270 274 277 277 280 275 275 276 277 279 281 280 281 281 281 280 279 279 281 283 284 285 283 274 270 273 278 286 278 279 284 287 292 295 300 303 306 307 303 300 297 293 285
270 270 270 271 273 275 276 279 281 283 286 286 282 278 275 275 276 278 279 284 287 286 278 269 264 268 276 270 276 283 287 292 297 300 303 305 306 306 304 301 299 293 288
265 266 268 271 273 276 279 282 283 285 284 279 276 274 273 273 276 275 280 285 285 279 267 261 259 261 265 276 282 292 299 300 301 303 304 305 308 308 307 305 301 296 287
268 272 273 274 276 280 283 284 282 279 277 273 269 265 267 270 271 274 278 278 271 258 244 246 254 264 273 283 294 298 298 300 302 304 306 312 316 315 312 308 305 298 282
273 274 275 277 280 283 282 282 283 279 274 269 263 259 260 262 267 270 268 257 240 234 238 246 257 270 282 297 300 297 302 304 309 314 317 320 322 321 316 311 308 292 268
284 281 282 284 285 287 287 286 284 278 272 267 260 257 253 257 260 258 243 225 228 234 240 252 263 281 293 300 304 305 315 318 322 325 328 330 331 324 315 313 306 283 250
280 283 289 286 284 283 286 289 285 277 272 264 255 249 251 252 248 239 223 225 233 242 261 272 275 285 295 303 307 315 322 324 329 331 334 337 335 327 320 318 307 260 195
283 286 282 278 281 284 285 288 282 281 270 255 246 248 247 239 236 230 232 233 239 249 263 275 282 288 298 299 312 320 322 329 332 337 338 344 341 335 330 327 302 179 176
284 280 278 279 279 277 276 280 278 271 262 257 252 250 249 245 234 233 238 241 244 252 262 272 281 291 295 302 308 317 324 330 335 339 340 349 347 342 351 21 148 162 155
278 274 273 274 274 275 274 272 273 273 274 263 251 245 248 244 242 243 245 250 257 263 268 273 279 284 287 295 302 309 319 328 333 338 341 351 351 353 46 103 132 147 143
268 264 267 274 276 272 271 269 269 266 265 259 257 253 252 253 251 252 253 257 262 265 268 271 275 275 280 285 295 303 311 324 331 335 336 347 353 9 112 129 139 146 146
262 264 268 271 274 271 270 267 266 265 262 260 262 264 267 268 268 267 266 266 266 266 269 270 273 274 274 279 286 294 303 314 323 328 329 343 353 89 143 146 150 146 147
261 263 268 270 267 266 269 270 271 271 270 270 270 270 271 272 271 273 272 273 272 272 273 274 276 274 276 278 280 284 292 303 310 316 318 336 356 140 156 154 153 152 153
267 264 266 267 265 265 269 272 274 275 274 274 274 274 273 273 273 274 275 275 276 277 277 277 277 273 272 275 276 278 284 292 298 299 300 325 354 148 161 158 155 157 157
266 268 267 265 265 267 270 271 271 273 275 276 276 277 277 277 277 278 278 278 278 277 277 277 275 273 270 269 272 275 279 285 288 282 280 296 187 158 162 163 162 162 162
265 267 269 270 271 272 274 275 276 277 279 280 281 281 282 282 282 281 281 280 280 278 277 275 274 272 270 268 267 269 272 273 273 261 252 237 187 165 167 169 167 169 170
Height
10635 10637 10636 10633 10635 10641 10644 10643 10643 10645 10646 10646 10646 10646 10647 10647 10646 10644 10642 10641 10641 10641 10642 10641 10637 10636 10632 10631 10630 10627 10626 10624 10626 10620 10612 10599 10596 10591 10583 10579 10577 10575 10574
10623 10621 10622 10623 10627 10632 10633 10634 10634 10634 10634 10634 10634 10634 10633 10631 10630 10628 10626 10625 10626 10624 10624 10623 10619 10617 10614 10613 10611 10606 10605 10600 10600 10602 10592 10585 10579 10572 10572 10567 10562 10561 10556
10618 10618 10618 10616 10618 10620 10620 10623 10622 10622 10621 10621 10620 10618 10615 10615 10614 10613 10611 10608 10608 10608 10606 10602 10600 10598 10594 10593 10590 10585 10581 10580 10578 10579 10575 10567 10560 10554 10552 10549 10543 10538 10537
10610 10612 10610 10611 10609 10607 10609 10609 10609 10608 10608 10605 10603 10602 10600 10600 10597 10596 10594 10592 10590 10589 10587 10585 10581 10578 10575 10571 10567 10564 10562 10562 10560 10558 10554 10550 10543 10535 10533 10530 10524 10519 10517
10594 10595 10594 10594 10595 10594 10595 10595 10595 10593 10591 10590 10587 10585 10584 10584 10580 10578 10575 10575 10572 10569 10568 10564 10562 10560 10557 10553 10550 10546 10547 10546 10542 10539 10534 10530 10523 10518 10512 10511 10508 10500 10497
10577 10577 10577 10579 10580 10581 10580 10577 10575 10575 10573 10573 10570 10570 10568 10566 10563 10560 10556 10556 10555 10552 10551 10549 10547 10546 10543 10538 10535 10534 10531 10529 10525 10522 10517 10511 10504 10500 10496 10491 10489 10483 10473
10562 10562 10564 10564 10564 10563 10562 10562 10562 10561 10559 10556 10555 10554 10552 10550 10547 10543 10540 10539 10537 10537 10536 10534 10535 10534 10531 10526 10523 10520 10517 10516 10513 10509 10503 10496 10491 10484 10480 10472 10466 10461 10453
10551 10551 10552 10551 10550 10550 10549 10548 10546 10544 10543 10541 10540 10537 10535 10534 10531 10527 10525 10524 10522 10523 10523 10522 10520 10520 10520 10515 10511 10505 10502 10498 10493 10490 10487 10482 10475 10469 10463 10455 10445 10439 10431
10539 10539 10538 10537 10536 10536 10535 10534 10532 10530 10528 10526 10525 10522 10521 10520 10515 10512 10511 10510 10507 10508 10509 10509 10506 10505 10504 10502 10499 10493 10488 10482 10479 10476 10470 10465 10458 10451 10444 10436 10424 10417 10409
10525 10525 10524 10524 10523 10522 10520 10517 10513 10511 10511 10511 10510 10506 10504 10504 10500 10497 10496 10494 10493 10494 10494 10494 10493 10491 10490 10488 10485 10482 10477 10473 10469 10461 10453 10448 10441 10433 10423 10413 10401 10393 10386
10514 10512 10511 10509 10507 10503 10500 10497 10495 10494 10494 10494 10494 10490 10487 10485 10484 10483 10481 10480 10479 10477 10478 10478 10479 10479 10479 10477 10474 10472 10469 10465 10458 10450 10441 10433 10424 10414 10404 10392 10382 10372 10365
10501 10498 10496 10493 10490 10486 10483 10480 10478 10477 10477 10476 10476 10473 10470 10470 10469 10469 10468 10467 10465 10462 10461 10463 10466 10468 10468 10467 10465 10462 10458 10452 10445 10437 10429 10420 10410 10398 10384 10371 10362 10354 10349
10484 10482 10479 10477 10474 10470 10467 10464 10461 10458 10458 10458 10458 10455 10455 10456 10456 10456 10457 10455 10453 10451 10451 10453 10456 10458 10460 10458 10456 10453 10447 10440 10433 10425 10415 10407 10397 10382 10367 10356 10346 10340 10336
10471 10468 10464 10461 10457 10454 10451 10445 10442 10440 10440 10440 10440 10439 10440 10443 10443 10446 10446 10445 10444 10444 10445 10448 10451 10452 10451 10449 10447 10443 10438 10431 10423 10413 10403 10394 10382 10367 10354 10343 10336 10331 10327
10455 10451 10447 10444 10442 10437 10432 10428 10426 10423 10422 10422 10423 10425 10428 10431 10433 10436 10437 10437 10438 10440 10441 10443 10444 10444 10443 10441 10439 10433 10429 10421 10411 10401 10391 10381 10368 10355 10344 10334 10328 10324 10322
10436 10433 10432 10430 10427 10423 10418 10414 10413 10411 10410 10410 10411 10415 10418 10422 10425 10427 10429 10431 10433 10434 10436 10436 10437 10437 10435 10433 10429 10424 10418 10409 10400 10390 10381 10370 10358 10347 10337 10328 10322 10319 10320
10423 10421 10420 10417 10414 10412 10409 10406 10404 10402 10401 10402 10404 10408 10411 10415 10417 10420 10423 10425 10427 10428 10430 10429 10430 10429 10428 10424 10421 10415 10408 10401 10393 10384 10375 10364 10351 10342 10333 10324 10319 10317 10318
10412 10410 10409 10407 10405 10404 10402 10401 10398 10396 10397 10398 10399 10402 10405 10408 10411 10414 10417 10419 10421 10422 10422 10422 10422 10421 10419 10416 10413 10408 10402 10395 10387 10378 10369 10359 10347 10338 10330 10323 10320 10318 10320
10402 10400 10399 10398 10398 10397 10396 10395 10394 10394 10394 10395 10396 10398 10401 10403 10405 10408 10410 10411 10412 10413 10414 10414 10414 10412 10410 10408 10406 10402 10396 10390 10383 10374 10366 10356 10347 10339 10332 10326 10324 10324 10326
10393 10392 10392 10392 10392 10391 10390 10390 10389 10390 10391 10391 10393 10394 10396 10398 10399 10401 10402 10403 10404 10405 10405 10404 10405 10404 10402 10401 10399 10397 10393 10386 10381 10373 10364 10356 10349 10342 10337 10333 10334 10337 10340
10386 10387 10387 10386 10385 10385 10385 10385 10385 10385 10386 10387 10388 10389 10390 10391 10392 10392 10393 10394 10394 10394 10394 10395 10395 10396 10394 10393 10393 10391 10388 10383 10378 10372 10364 10358 10353 10348 10345 10344 10347 10353 10353
10380 10380 10380 10380 10380 10380 10380 10380 10380 10380 10381 10381 10382 10382 10382 10382 10383 10383 10383 10383 10383 10383 10383 10384 10385 10386 10385 10385 10385 10385 10383 10380 10376 10371 10365 10360 10356 10354 10353 10354 10359 10360 10365
10374 10374 10374 10374 10374 10374 10373 10374 10374 10374 10373 10374 10374 10373 10373 10373 10373 10372 10372 10371 10371 10370 10371 10371 10373 10374 10375 10375 10376 10377 10378 10376 10373 10370 10366 10363 10360 10358 10361 10362 10366 10370 10375
10367 10367 10368 10368 10368 10368 10368 10367 10366 10365 10364 10364 10363 10362 10361 10361 10360 10360 10360 10359 10358 10357 10358 10359 10359 10361 10363 10364 10365 10368 10370 10370 10369 10366 10365 10365 10363 10362 10368 10372 10374 10378 10384
10361 10361 10361 10361 10361 10361 10360 10359 10358 10357 10356 10354 10353 10352 10350 10349 10348 10347 10346 10346 10345 10345 10345 10346 10347 10349 10351 10354 10355 10357 10360 10362 10361 10361 10361 10364 10364 10365 10371 10375 10381 10386 10390
10356 10356 10355 10355 10354 10353 10352 10351 10350 10348 10346 10345 10343 10341 10339 10337 10335 10333 10332 10331 10330 10331 10331 10331 10333 10335 10337 10340 10343 10345 10348 10352 10353 10353 10355 10361 10362 10364 10370 10375 10381 10387 10393